This is the latest recevied weather packets stored in our database for station/object KD9CCP. If no packets are shown the sender has not sent any weather packets the latest 10 day(s).
| Time | Temp. | Humidity | Pressure | Rain* | Wind** | Luminosity | Snow |
|---|---|---|---|---|---|---|---|
| 1778152783 | 2.22° C | 77% | 1013.3 hPa | 0 mm | - | 3 W/m² | - |
| 1778152481 | 2.22° C | 76% | 1013.4 hPa | 0 mm | - | 2 W/m² | - |
| 1778152177 | 2.22° C | 75% | 1013.1 hPa | 0 mm | - | 1 W/m² | - |
| 1778151873 | 2.22° C | 78% | 1013.3 hPa | 0 mm | - | 1 W/m² | - |
| 1778151570 | 2.22° C | 77% | 1013.1 hPa | 0 mm | - | 0 W/m² | - |
| 1778151267 | 2.22° C | 76% | 1013.2 hPa | 0 mm | - | 0 W/m² | - |
| 1778150964 | 2.22° C | 78% | 1013.1 hPa | 0 mm | - | 0 W/m² | - |
| 1778150661 | 2.22° C | 77% | 1013.2 hPa | 0 mm | - | 0 W/m² | - |
| 1778150356 | 2.22° C | 77% | 1013.1 hPa | 0 mm | - | 0 W/m² | - |
| 1778150054 | 2.22° C | 77% | 1013.2 hPa | 0 mm | - | 0 W/m² | - |
| 1778149749 | 2.22° C | 76% | 1013.1 hPa | 0 mm | - | 0 W/m² | - |
| 1778149446 | 2.22° C | 77% | 1013.2 hPa | 0 mm | - | 0 W/m² | - |
| 1778149143 | 2.22° C | 78% | 1013.2 hPa | 0 mm | - | 0 W/m² | - |
| 1778148843 | 2.22° C | 78% | 1013 hPa | 0 mm | - | 0 W/m² | - |
| 1778148540 | 2.22° C | 79% | 1013.3 hPa | 0 mm | - | 0 W/m² | - |
| 1778148238 | 2.22° C | 76% | 1013.2 hPa | 0 mm | - | 0 W/m² | - |
| 1778147936 | 2.22° C | 76% | 1013.3 hPa | 0 mm | - | 0 W/m² | - |
| 1778147632 | 2.22° C | 76% | 1013.2 hPa | 0 mm | - | 0 W/m² | - |
| 1778147330 | 1.67° C | 76% | 1013.1 hPa | 0 mm | - | 0 W/m² | - |
| 1778147025 | 1.67° C | 76% | 1013.2 hPa | 0 mm | - | 0 W/m² | - |
| 1778146723 | 1.67° C | 75% | 1013.2 hPa | 0 mm | - | 0 W/m² | - |
| 1778146421 | 1.67° C | 76% | 1013 hPa | 0 mm | - | 0 W/m² | - |
| 1778146119 | 1.67° C | 75% | 1013.2 hPa | 0 mm | - | 0 W/m² | - |
| 1778145815 | 1.67° C | 75% | 1013.1 hPa | 0 mm | - | 0 W/m² | - |
| 1778145511 | 1.67° C | 75% | 1013.3 hPa | 0 mm | - | 0 W/m² | - |
* Rain latest hour (hover to see other rain measurements)
** Current wind speed in m/s (hover to see current wind gust speed)